Skip Page Navigation
NASA JPL Caltech
NASA Logo - Jet Propulsion Laboratory + View the NASA Portal
+ Near-Earth Object (NEO) Program
Search JPL
JPL Home Earth Solar System Stars & Galaxies Technology
JPL Solar System Dynamics
BODIES ORBITS EPHEMERIDES TOOLS PHYSICAL DATA DISCOVERY FAQ SITE MAP
JPL Small-Body Database Browser
Search: [ help ]  
21785 Mechain (1999 SS2)
Classification: Main-belt Asteroid          SPK-ID: 2021785
Ephemeris | Orbit Diagram | Orbital Elements | Physical Parameters | Discovery Circumstances ]

[ hide orbit diagram ]
Orbit Diagram
Note: Make sure you have Java enabled on your browser to see the applet. This applet is provided as a 3D orbit visualization tool. The applet was implemented using 2-body methods, and hence should not be used for determining accurate long-term trajectories (over several years or decades) or planetary encounter circumstances. For accurate long-term ephemerides, please instead use our Horizons system.
Orbit Viewer

Additional Notes: the orbits shown in the applet are color coded. The planets are white lines, and the asteroid/comet is a blue line. The bright white line indicates the portion of the orbit that is above the ecliptic plane, and the darker portion is below the ecliptic plane. Likewise for the asteroid/comet orbit, the light blue indicates the portion above the ecliptic plane, and the dark blue the portion below the ecliptic plane.

Orbit Viewer applet originally written and kindly provided by Osamu Ajiki (AstroArts), and further modified by Ron Baalke (JPL).


Orbital Elements at Epoch 2456400.5 (2013-Apr-18.0) TDB
Reference: MPO216632 (heliocentric ecliptic J2000)
 Element Value Uncertainty (1-sigma)   Units 
e 0.1694163 n/a  
a 2.7782599 n/a AU
q 2.3075774 n/a AU
i 18.63618 n/a deg
node 23.03770 n/a deg
peri 358.70950 n/a deg
M 320.93230 n/a deg
tp 2456584.0578922
(2013-Oct-18.55789220)
n/a JED
period 1691.4443690
4.63
n/a
n/a
d
yr
n 0.21283585 n/a deg/d
Q 3.2489424 n/a AU
  Orbit Determination Parameters
   # obs. used (total)      305  
   first obs. used      1976-??-??  
   last obs. used      2011-05-07  
   # oppositions      11  
   planetary ephem.      DE403  
   condition code      0  
   fit RMS      0.63  
   data source      MPC:mpn  
   producer      MPCLINUX  

Additional Information
 T_jup = 3.238 

Ephemeris | Orbit Diagram | Orbital Elements | Physical Parameters | Discovery Circumstances ]

Physical Parameter Table
Parameter Symbol Value Units Sigma Reference Notes
absolute magnitude H 14.8 mag n/a PDS3 (MPO 8862)  

21785 Méchain           Discovered 1999 Sept. 21 by M. Tichy at Klet.
Pierre François André Méchain (1744-1804) discovered many comets and deep-sky objects. A colleague and friend of Messier, he contributed much to Messier's catalogue of nebulae. Much of Méchain's career involved geodetic measurements along the Paris meridian, with the idea of defining the meter.
NOTE: some special characters may not display properly (any characters within {} are an attempt to place the proper accent above a character)
Reference: 20020624/MPCPages.arcLast Updated: 2003-10-02

Alternate Designations
 1999 SS2 = 1976 UX5 
Ephemeris | Orbit Diagram | Orbital Elements | Physical Parameters | Discovery Circumstances ]
ABOUT SSD CREDITS/AWARDS PRIVACY/COPYRIGHT GLOSSARY LINKS
FirstGov 2013-May-20 00:10 UT
(server date/time)  
NASA Home Page
Site Manager:   Donald K. Yeomans
Webmaster  Alan B. Chamberlin